CW3847 La Orotava ES current weather conditions

sailwx.info

Wind from 001 at 1 knots gusting 2

Air temperature 19.4° C
Dewpoint 17.2° C

Last reported at 2016-Sep-30 19:55 UTC.
Time now 2016-Sep-30 20:21 UTC

Location: N 28°23' W 016°31'.
View on Google Maps.

See reports from other nearby stations

  
Tides and Currents Weather Stations Pressure Air Temp Water Temp Dewpoint Dewpoint Depression Visibility Wind Speed Wind Dir Waves Ship Positions
date/time (UTC)wind fromknots sea level pressurealtimeterstation pressurevisibilityair tempwater tempwave heightnotes
2016-Sep-30 19:55 001 1 gusting 2 19.4
2016-Sep-30 19:50 001 1 gusting 2 20.0
2016-Sep-30 19:45 001 0 gusting 2 20.0
2016-Sep-30 19:40 001 0 gusting 2 20.0
2016-Sep-30 19:35 001 0 gusting 2 20.0
2016-Sep-30 19:30 001 1 gusting 3 20.0
2016-Sep-30 19:25 001 1 gusting 3 20.0
2016-Sep-30 19:20 001 1 gusting 3 20.0
2016-Sep-30 19:15 001 2 gusting 4 20.0
2016-Sep-30 19:10 001 1 gusting 4 20.0
2016-Sep-30 19:05 002 2 gusting 4 20.0
2016-Sep-30 19:00 004 2 gusting 4 20.0
2016-Sep-30 18:55 006 2 gusting 4 20.0
2016-Sep-30 18:50 007 2 gusting 4 20.0
2016-Sep-30 18:45 012 2 gusting 4 20.0
2016-Sep-30 18:40 017 2 gusting 4 20.0
2016-Sep-30 18:31 357 1 gusting 5 20.0
2016-Sep-30 18:10 351 2 gusting 4 20.6
2016-Sep-30 18:05 350 3 gusting 5 20.6
2016-Sep-30 18:00 351 3 gusting 5 20.6
2016-Sep-30 17:55 009 2 gusting 5 20.6
2016-Sep-30 17:50 028 2 gusting 5 20.6
2016-Sep-30 17:45 013 2 gusting 5 20.6
2016-Sep-30 17:40 012 3 gusting 6 20.6
2016-Sep-30 17:35 019 2 gusting 6 20.6
2016-Sep-30 17:30 011 2 gusting 6 20.6
2016-Sep-30 17:25 006 3 gusting 6 20.6
2016-Sep-30 17:20 001 3 gusting 7 21.1
2016-Sep-30 17:15 355 4 gusting 7 21.1
2016-Sep-30 17:10 003 3 gusting 7 21.1
2016-Sep-30 17:05 007 2 gusting 7 21.1
2016-Sep-30 17:00 348 3 gusting 7 21.1
2016-Sep-30 16:55 344 3 gusting 7 21.7
2016-Sep-30 16:50 351 3 gusting 5 21.7
2016-Sep-30 16:45 006 2 gusting 5 21.7
2016-Sep-30 16:40 016 2 gusting 6 21.7
2016-Sep-30 16:35 029 2 gusting 6 21.7
2016-Sep-30 16:30 029 2 gusting 5 21.7
2016-Sep-30 16:25 003 3 gusting 6 21.7
2016-Sep-30 16:20 007 3 gusting 6 21.1
2016-Sep-30 16:15 018 2 gusting 6 21.1
2016-Sep-30 16:10 003 3 gusting 6 21.1
2016-Sep-30 16:05 357 3 gusting 6 21.1
2016-Sep-30 16:00 346 4 gusting 7 21.1
2016-Sep-30 15:55 345 5 gusting 8 21.1
2016-Sep-30 15:50 359 4 gusting 8 21.1
2016-Sep-30 15:45 352 4 gusting 8 21.7
2016-Sep-30 15:40 338 5 gusting 8 21.7
2016-Sep-30 15:35 341 6 gusting 11 21.7
2016-Sep-30 15:30 353 5 gusting 11 21.7
2016-Sep-30 15:25 355 4 gusting 7 21.7
2016-Sep-30 15:20 002 4 gusting 7 21.7
2016-Sep-30 15:15 009 3 gusting 8 21.7
2016-Sep-30 15:10 350 4 gusting 8 21.7
2016-Sep-30 15:05 331 4 gusting 9 21.7
2016-Sep-30 15:00 332 4 gusting 9 21.7
2016-Sep-30 14:55 349 3 gusting 8 21.7
2016-Sep-30 14:50 005 2 gusting 6 21.7
2016-Sep-30 14:45 356 3 gusting 6 21.7
2016-Sep-30 14:40 341 4 gusting 8 21.7
2016-Sep-30 14:35 331 4 gusting 8 21.7
2016-Sep-30 14:30 347 3 gusting 6 21.7
2016-Sep-30 14:25 001 3 gusting 6 21.7
2016-Sep-30 14:20 012 3 gusting 7 21.7
2016-Sep-30 14:15 019 4 gusting 7 21.7
2016-Sep-30 14:10 004 3 gusting 7 21.7
2016-Sep-30 14:05 352 4 gusting 8 21.7
2016-Sep-30 14:00 353 4 gusting 8 21.7
2016-Sep-30 13:55 353 4 gusting 7 21.7
2016-Sep-30 13:50 355 4 gusting 8 21.7
2016-Sep-30 13:45 349 5 gusting 9 21.7
2016-Sep-30 13:40 347 5 gusting 9 21.7
2016-Sep-30 13:35 357 4 gusting 8 21.7
2016-Sep-30 13:30 005 3 gusting 7 21.7
2016-Sep-30 13:25 354 3 gusting 7 21.7
2016-Sep-30 13:20 348 3 gusting 7 21.7
2016-Sep-30 13:15 016 3 gusting 7 21.7
2016-Sep-30 13:10 022 3 gusting 8 21.7
2016-Sep-30 13:05 002 4 gusting 8 21.7
2016-Sep-30 13:00 359 4 gusting 8 21.7
2016-Sep-30 12:55 359 5 gusting 8 21.7
2016-Sep-30 12:50 002 3 gusting 8 21.7
2016-Sep-30 12:45 011 3 gusting 7 21.1
2016-Sep-30 12:40 014 3 gusting 7 21.1
2016-Sep-30 12:35 004 3 gusting 8 21.7
2016-Sep-30 12:30 351 4 gusting 9 21.7
2016-Sep-30 12:25 346 5 gusting 9 21.7
2016-Sep-30 12:20 351 4 gusting 7 21.7
2016-Sep-30 12:15 350 4 gusting 8 21.7
2016-Sep-30 12:10 342 5 gusting 9 21.1
2016-Sep-30 12:05 347 4 gusting 9 21.1
2016-Sep-30 12:00 001 3 gusting 6 21.1
2016-Sep-30 11:55 007 2 gusting 5 21.1
2016-Sep-30 11:50 002 2 gusting 5 21.1
2016-Sep-30 11:45 355 3 gusting 7 21.1
2016-Sep-30 11:40 353 4 gusting 7 21.1
2016-Sep-30 11:35 344 4 gusting 8 21.1
2016-Sep-30 11:30 342 4 gusting 8 21.1
2016-Sep-30 11:25 348 3 gusting 7 21.1
2016-Sep-30 11:20 353 4 gusting 7 21.1
2016-Sep-30 11:15 007 3 gusting 7 21.1
2016-Sep-30 11:10 013 3 gusting 7 20.6
2016-Sep-30 11:05 011 4 gusting 7 20.6
2016-Sep-30 11:00 012 4 gusting 7 20.6
2016-Sep-30 10:55 025 3 gusting 7 20.6
2016-Sep-30 10:50 047 3 gusting 6 20.6
2016-Sep-30 10:45 023 4 gusting 7 20.6
2016-Sep-30 10:40 001 5 gusting 10 20.6
2016-Sep-30 10:35 006 5 gusting 10 20.6
2016-Sep-30 10:25 004 4 gusting 8 21.1
2016-Sep-30 10:20 013 5 gusting 8 21.1
2016-Sep-30 10:15 020 4 gusting 8 21.7
2016-Sep-30 10:10 006 4 gusting 6 21.7
2016-Sep-30 10:05 358 3 gusting 6 21.7
2016-Sep-30 10:00 357 2 gusting 6 21.7
2016-Sep-30 09:55 002 1 gusting 4 21.7
2016-Sep-30 09:50 029 0 gusting 2 22.2
2016-Sep-30 09:45 007 1 gusting 4 21.7
2016-Sep-30 09:40 334 1 gusting 4 21.7
2016-Sep-30 09:35 316 1 gusting 3 21.7
2016-Sep-30 09:30 315 0 gusting 3 21.1
2016-Sep-30 09:25 315 0 gusting 3 21.1
2016-Sep-30 09:20 288 1 gusting 4 21.1
2016-Sep-30 09:15 237 1 gusting 4 21.7
2016-Sep-30 09:10 173 0 gusting 2 21.7
2016-Sep-30 09:05 172 21.1
2016-Sep-30 08:55 172 0 gusting 1 20.6
2016-Sep-30 08:50 173 20.6
2016-Sep-30 08:40 172 0 gusting 2 20.0
2016-Sep-30 08:35 172 0 gusting 2 19.4
2016-Sep-30 08:30 173 1 gusting 4 18.9
2016-Sep-30 08:25 172 2 gusting 5 18.3
2016-Sep-30 08:20 172 3 gusting 5 18.3
2016-Sep-30 08:15 172 4 gusting 6 17.8
2016-Sep-30 08:10 173 3 gusting 6 17.8
2016-Sep-30 08:05 174 3 gusting 6 17.2
2016-Sep-30 08:00 174 4 gusting 6 17.2
2016-Sep-30 07:55 175 3 gusting 6 17.2
2016-Sep-30 07:50 173 3 gusting 6 17.2
2016-Sep-30 07:45 171 3 gusting 6 17.2
2016-Sep-30 07:40 172 3 gusting 6 17.2
2016-Sep-30 07:35 175 3 gusting 6 17.2
2016-Sep-30 07:30 175 3 gusting 6 17.2
2016-Sep-30 07:25 173 3 gusting 6 16.7
2016-Sep-30 07:20 173 3 gusting 5 16.7
2016-Sep-30 07:15 173 2 gusting 5 17.2
2016-Sep-30 07:10 173 2 gusting 5 16.7
2016-Sep-30 07:05 173 2 gusting 4 16.7
2016-Sep-30 07:00 173 2 gusting 5 16.7
2016-Sep-30 06:55 173 3 gusting 5 17.2
2016-Sep-30 06:50 173 3 gusting 5 17.2
2016-Sep-30 06:45 174 2 gusting 5 16.7
2016-Sep-30 06:40 174 2 gusting 4 16.7
2016-Sep-30 06:35 173 2 gusting 5 17.2
2016-Sep-30 06:30 173 3 gusting 5 16.7
2016-Sep-30 06:25 173 2 gusting 5 16.7
2016-Sep-30 06:20 173 2 gusting 4 16.7
2016-Sep-30 06:15 174 2 gusting 5 16.7
2016-Sep-30 06:10 174 2 gusting 5 17.2
2016-Sep-30 06:05 174 2 gusting 5 17.2
2016-Sep-30 06:00 174 2 gusting 4 17.2
2016-Sep-30 05:55 174 2 gusting 5 17.2
2016-Sep-30 05:50 175 3 gusting 6 17.2
2016-Sep-30 05:45 177 3 gusting 6 17.2
2016-Sep-30 05:40 177 2 gusting 4 17.2
2016-Sep-30 05:35 177 2 gusting 4 17.2
2016-Sep-30 05:30 177 2 gusting 3 17.2
2016-Sep-30 05:25 178 2 gusting 5 17.2
2016-Sep-30 05:20 177 3 gusting 6 17.2
2016-Sep-30 05:15 175 3 gusting 6 17.2
2016-Sep-30 05:10 173 4 gusting 6 17.2
2016-Sep-30 05:05 173 4 gusting 6 17.2
2016-Sep-30 05:00 174 4 gusting 6 17.2
2016-Sep-30 04:55 174 4 gusting 6 17.2
2016-Sep-30 04:50 173 3 gusting 6 17.2
2016-Sep-30 04:45 177 3 gusting 6 17.2
2016-Sep-30 04:40 177 3 gusting 6 17.2
2016-Sep-30 04:35 174 3 gusting 6 17.2
2016-Sep-30 04:30 174 3 gusting 6 17.2
2016-Sep-30 04:25 176 2 gusting 5 17.2
2016-Sep-30 04:20 178 3 gusting 5 17.2
2016-Sep-30 04:15 177 3 gusting 6 17.2
2016-Sep-30 04:10 174 3 gusting 6 17.2
2016-Sep-30 04:05 174 3 gusting 6 17.2
2016-Sep-30 04:00 175 2 gusting 6 17.2
2016-Sep-30 03:55 174 3 gusting 6 17.2
2016-Sep-30 03:50 173 4 gusting 6 17.2
2016-Sep-30 03:45 174 4 gusting 6 17.2
2016-Sep-30 03:40 174 3 gusting 6 17.2
2016-Sep-30 03:35 174 3 gusting 6 17.2
2016-Sep-30 03:30 174 3 gusting 6 17.2
2016-Sep-30 03:25 172 4 gusting 6 17.2
2016-Sep-30 03:20 172 3 gusting 6 17.2
2016-Sep-30 03:15 173 3 gusting 6 17.2
2016-Sep-30 03:10 174 2 gusting 6 17.8
2016-Sep-30 03:05 174 2 gusting 5 17.8
2016-Sep-30 03:00 175 1 gusting 5 17.8
2016-Sep-30 02:55 175 1 gusting 3 17.8
2016-Sep-30 02:50 174 1 gusting 5 17.8
2016-Sep-30 02:45 174 3 gusting 6 17.2
2016-Sep-30 02:40 174 3 gusting 6 17.8
2016-Sep-30 02:35 174 3 gusting 6 17.8
2016-Sep-30 02:30 175 2 gusting 5 17.8
2016-Sep-30 02:25 175 2 gusting 5 17.8
2016-Sep-30 02:20 175 2 gusting 5 17.8
2016-Sep-30 02:15 175 3 gusting 6 17.8
2016-Sep-30 02:10 174 3 gusting 6 17.8
2016-Sep-30 02:05 175 2 gusting 6 17.8
2016-Sep-30 02:00 177 1 gusting 5 17.8
2016-Sep-30 01:55 177 1 gusting 3 17.8
2016-Sep-30 01:50 174 1 gusting 4 17.8
2016-Sep-30 01:45 173 1 gusting 6 17.8
2016-Sep-30 01:40 175 1 gusting 6 17.8
2016-Sep-30 01:35 177 0 gusting 5 17.8
2016-Sep-30 01:30 177 0 gusting 2 17.8
2016-Sep-30 01:25 175 0 gusting 3 17.8
2016-Sep-30 01:20 174 0 gusting 5 17.8
2016-Sep-30 01:15 173 1 gusting 5 17.8
2016-Sep-30 01:10 173 1 gusting 4 17.8
2016-Sep-30 01:05 174 1 gusting 4 17.8
2016-Sep-30 01:00 175 1 gusting 4 17.8
2016-Sep-30 00:55 175 0 gusting 3 17.8
2016-Sep-30 00:50 175 0 gusting 6 17.8
2016-Sep-30 00:45 175 1 gusting 6 17.8
2016-Sep-30 00:40 175 2 gusting 4 17.8
2016-Sep-30 00:35 174 2 gusting 6 18.3
2016-Sep-30 00:30 173 2 gusting 6 18.3
2016-Sep-30 00:25 169 2 gusting 5 18.3
2016-Sep-30 00:20 168 1 gusting 5 18.3
2016-Sep-30 00:15 168 1 gusting 5 18.3
2016-Sep-30 00:10 167 1 gusting 5 18.3
2016-Sep-30 00:05 164 2 gusting 5 18.3
2016-Sep-30 00:00 160 1 gusting 5 18.3
2016-Sep-29 23:55 157 1 gusting 5 18.3
2016-Sep-29 23:50 155 1 gusting 5 18.3
2016-Sep-29 23:45 153 2 gusting 4 18.3
2016-Sep-29 23:40 145 1 gusting 4 18.3
2016-Sep-29 23:35 135 1 gusting 4 18.3
2016-Sep-29 23:30 131 0 gusting 4 18.3
2016-Sep-29 23:25 127 0 gusting 4 18.3
2016-Sep-29 23:20 119 1 gusting 3 18.3
2016-Sep-29 23:15 116 1 gusting 2 18.3
2016-Sep-29 23:10 116 1 gusting 2 18.3
2016-Sep-29 23:05 116 1 gusting 3 18.3
2016-Sep-29 22:55 116 0 gusting 3 18.3
2016-Sep-29 22:50 116 1 gusting 3 18.3
2016-Sep-29 22:45 116 1 gusting 3 18.3
2016-Sep-29 22:40 116 0 gusting 3 18.3
2016-Sep-29 22:35 116 0 gusting 2 18.3
2016-Sep-29 22:30 116 1 gusting 3 18.3
2016-Sep-29 22:25 116 0 gusting 3 18.9
2016-Sep-29 22:20 115 18.9
2016-Sep-29 22:15 115 18.9
2016-Sep-29 22:10 116 0 gusting 3 18.9
2016-Sep-29 22:05 116 0 gusting 3 19.4
2016-Sep-29 22:00 116 0 gusting 3 19.4
2016-Sep-29 21:55 112 0 gusting 3 19.4
2016-Sep-29 21:50 106 0 gusting 3 19.4
2016-Sep-29 21:45 101 0 gusting 2 19.4
2016-Sep-29 21:40 094 0 gusting 2 19.4
2016-Sep-29 21:35 079 19.4
2016-Sep-29 21:30 067 19.4
2016-Sep-29 21:25 011 19.4
2016-Sep-29 21:20 005 0 gusting 3 19.4
2016-Sep-29 21:15 355 19.4
2016-Sep-29 21:10 355 19.4
2016-Sep-29 21:05 355 19.4
2016-Sep-29 21:00 355 19.4
2016-Sep-29 20:55 355 19.4
2016-Sep-29 20:50 355 19.4
2016-Sep-29 20:45 355 19.4
2016-Sep-29 20:40 355 19.4
2016-Sep-29 20:35 355 19.4
2016-Sep-29 20:30 355 19.4
2016-Sep-29 20:25 19.4
2016-Sep-29 20:20 19.4
2016-Sep-29 20:15 20.0
2016-Sep-29 20:10 20.0
2016-Sep-29 20:05 355 20.0
2016-Sep-29 20:00 355 20.0
2016-Sep-29 19:55 355 20.0
2016-Sep-29 19:50 355 20.6
2016-Sep-29 19:45 355 0 gusting 2 20.6
2016-Sep-29 19:40 355 0 gusting 2 20.6
2016-Sep-29 19:35 355 0 gusting 3 20.6
2016-Sep-29 19:30 355 0 gusting 3 20.6
2016-Sep-29 19:25 355 0 gusting 2 20.6
2016-Sep-29 19:20 355 0 gusting 2 20.6
2016-Sep-29 19:15 355 20.6
2016-Sep-29 19:10 355 0 gusting 2 20.6
2016-Sep-29 19:05 355 0 gusting 2 20.6
2016-Sep-29 19:00 355 0 gusting 2 20.6
2016-Sep-29 18:55 355 0 gusting 2 20.6
2016-Sep-29 18:50 355 0 gusting 2 20.6
2016-Sep-29 18:45 355 0 gusting 2 20.6
2016-Sep-29 18:40 355 0 gusting 2 20.6
2016-Sep-29 18:35 354 1 gusting 3 20.6
2016-Sep-29 18:30 356 1 gusting 3 21.1
2016-Sep-29 18:25 358 1 gusting 3 21.1
2016-Sep-29 18:20 001 1 gusting 3 21.1
2016-Sep-29 18:15 001 1 gusting 3 21.1
2016-Sep-29 18:10 001 1 gusting 3 21.1
2016-Sep-29 18:05 002 1 gusting 4 21.1
2016-Sep-29 18:00 358 2 gusting 5 21.1
2016-Sep-29 17:55 009 2 gusting 5 21.1
2016-Sep-29 17:50 033 1 gusting 4 21.1
2016-Sep-29 17:45 035 1 gusting 4 21.1
2016-Sep-29 17:40 016 1 gusting 4 21.1
2016-Sep-29 17:35 349 2 gusting 5 21.1
2016-Sep-29 17:30 340 2 gusting 5 21.1
2016-Sep-29 17:25 341 1 gusting 4 21.1
2016-Sep-29 17:20 340 2 gusting 5 21.1
2016-Sep-29 17:15 344 2 gusting 6 21.1
2016-Sep-29 17:10 357 2 gusting 6 21.1
2016-Sep-29 17:05 007 1 gusting 5 21.1
2016-Sep-29 17:00 011 0 gusting 4 21.1
2016-Sep-29 16:55 006 1 gusting 6 21.1
2016-Sep-29 16:50 005 2 gusting 6 21.1
2016-Sep-29 16:45 003 2 gusting 6 21.1
2016-Sep-29 16:40 348 2 gusting 5 21.7
2016-Sep-29 16:35 346 2 gusting 6 21.7
2016-Sep-29 16:30 008 2 gusting 6 21.7
2016-Sep-29 16:25 024 2 gusting 6 21.7
2016-Sep-29 16:20 029 3 gusting 7 21.7
2016-Sep-29 16:15 037 3 gusting 7 21.7
2016-Sep-29 16:10 029 3 gusting 6 21.7
2016-Sep-29 16:05 011 3 gusting 6 21.7
2016-Sep-29 16:00 358 3 gusting 6 21.7
2016-Sep-29 15:55 003 2 gusting 4 21.7
2016-Sep-29 15:50 010 2 gusting 5 21.7
2016-Sep-29 15:45 027 3 gusting 5 21.7
2016-Sep-29 15:40 029 2 gusting 5 21.7
2016-Sep-29 15:35 005 2 gusting 4 21.7
2016-Sep-29 15:30 356 2 gusting 5 21.1
2016-Sep-29 15:25 350 2 gusting 5 21.1
2016-Sep-29 15:20 339 1 gusting 5 21.1
2016-Sep-29 15:15 335 1 gusting 4 21.1
2016-Sep-29 15:10 335 1 gusting 4 21.1
2016-Sep-29 15:05 336 1 gusting 4 21.1
2016-Sep-29 15:00 336 1 gusting 3 21.1
2016-Sep-29 14:55 336 0 gusting 3 20.6
2016-Sep-29 14:50 337 0 gusting 3 20.6
2016-Sep-29 14:45 337 1 gusting 4 20.6
2016-Sep-29 14:40 338 1 gusting 4 21.1
2016-Sep-29 14:35 343 2 gusting 4 20.6
2016-Sep-29 14:30 352 1 gusting 4 20.6
2016-Sep-29 14:25 355 1 gusting 5 20.6
2016-Sep-29 14:20 349 1 gusting 6 20.6
2016-Sep-29 14:15 353 1 gusting 6 20.6
2016-Sep-29 14:10 014 0 gusting 5 20.6
2016-Sep-29 14:05 021 1 gusting 3 20.6
2016-Sep-29 14:00 011 2 gusting 6 20.6
2016-Sep-29 13:55 357 3 gusting 6 20.6
2016-Sep-29 13:50 345 3 gusting 6 20.6
2016-Sep-29 13:45 339 4 gusting 6 20.6
2016-Sep-29 13:40 337 2 gusting 5 21.1
2016-Sep-29 13:35 342 1 gusting 4 21.1
2016-Sep-29 13:30 343 1 gusting 5 21.1
2016-Sep-29 13:25 337 2 gusting 5 21.1
2016-Sep-29 13:20 335 2 gusting 6 21.1
2016-Sep-29 13:15 341 2 gusting 6 21.1
2016-Sep-29 13:10 350 2 gusting 5 21.1
2016-Sep-29 13:05 348 2 gusting 6 21.1
2016-Sep-29 13:00 345 3 gusting 6 21.1
2016-Sep-29 12:55 348 3 gusting 6 21.1
2016-Sep-29 12:50 001 3 gusting 6 21.1
2016-Sep-29 12:45 009 3 gusting 6 21.1
2016-Sep-29 12:40 011 3 gusting 6 21.1
2016-Sep-29 12:35 013 3 gusting 6 21.1
2016-Sep-29 12:30 355 3 gusting 7 21.1
2016-Sep-29 12:25 350 3 gusting 7 21.1
2016-Sep-29 12:20 356 3 gusting 7 21.1
2016-Sep-29 12:15 345 4 gusting 7 21.1
2016-Sep-29 12:10 341 5 gusting 7 21.1
2016-Sep-29 12:05 344 4 gusting 7 21.1
2016-Sep-29 12:00 343 4 gusting 6 21.1
2016-Sep-29 11:55 339 4 gusting 6 21.1
2016-Sep-29 11:50 343 4 gusting 9 21.1
2016-Sep-29 11:45 353 4 gusting 9 21.1
2016-Sep-29 11:40 005 4 gusting 7 21.1
2016-Sep-29 11:35 358 4 gusting 7 21.1
2016-Sep-29 11:30 358 4 gusting 7 21.1
2016-Sep-29 11:25 356 5 gusting 8 21.1
2016-Sep-29 11:20 355 5 gusting 8 21.1
2016-Sep-29 11:15 006 4 gusting 8 21.1
2016-Sep-29 11:10 009 4 gusting 8 21.1
2016-Sep-29 11:05 002 3 gusting 6 21.1
2016-Sep-29 11:00 349 4 gusting 6 21.1
2016-Sep-29 10:55 349 4 gusting 7 21.1
2016-Sep-29 10:50 001 3 gusting 7 21.1
2016-Sep-29 10:45 011 2 gusting 6 21.1
2016-Sep-29 10:40 006 2 gusting 6 21.1
2016-Sep-29 10:35 019 2 gusting 6 21.7
2016-Sep-29 10:30 011 3 gusting 7 21.7
2016-Sep-29 10:25 355 4 gusting 7 21.7
2016-Sep-29 10:20 355 5 gusting 7 21.7
2016-Sep-29 10:15 001 4 gusting 7 22.2
2016-Sep-29 10:10 009 3 gusting 7 22.2
2016-Sep-29 10:05 018 3 gusting 6 22.8
2016-Sep-29 10:00 052 2 gusting 4 22.8
2016-Sep-29 09:55 090 0 gusting 3 22.8
2016-Sep-29 09:50 093 0 gusting 2 22.2
2016-Sep-29 09:45 093 0 gusting 2 22.2
2016-Sep-29 09:40 093 0 gusting 2 22.2
2016-Sep-29 09:35 093 0 gusting 2 21.7
2016-Sep-29 09:30 093 0 gusting 3 21.7
2016-Sep-29 09:25 101 1 gusting 5 21.7
2016-Sep-29 09:20 120 2 gusting 5 21.7
2016-Sep-29 09:15 158 2 gusting 4 21.7
2016-Sep-29 09:10 163 2 gusting 4 21.7
2016-Sep-29 09:05 166 1 gusting 4 21.7
2016-Sep-29 09:00 166 0 gusting 3 21.7
2016-Sep-29 08:55 166 1 gusting 3 21.7
2016-Sep-29 08:50 166 1 gusting 3 21.7
2016-Sep-29 08:45 167 1 gusting 4 21.7
2016-Sep-29 08:40 168 0 gusting 4 21.1
2016-Sep-29 08:35 169 21.1
2016-Sep-29 08:30 169 20.6
2016-Sep-29 08:25 169 0 gusting 4 20.6
2016-Sep-29 08:20 168 1 gusting 4 20.6
2016-Sep-29 08:15 169 2 gusting 6 20.0
2016-Sep-29 08:10 170 2 gusting 6 19.4
2016-Sep-29 08:05 173 0 gusting 4 19.4
2016-Sep-29 08:00 173 1 gusting 6 19.4
2016-Sep-29 07:55 174 2 gusting 6 18.9
2016-Sep-29 07:50 173 2 gusting 6 18.9
2016-Sep-29 07:45 173 2 gusting 6 18.9
2016-Sep-29 07:40 174 3 gusting 6 18.9
2016-Sep-29 07:35 174 2 gusting 5 18.9
2016-Sep-29 07:30 175 1 gusting 4 18.9
2016-Sep-29 07:25 178 1 gusting 4 18.9
2016-Sep-29 07:20 182 0 gusting 4 18.9
2016-Sep-29 07:15 182 0 gusting 3 18.9
2016-Sep-29 07:10 183 1 gusting 3 18.9
2016-Sep-29 07:05 184 0 gusting 3 18.9
2016-Sep-29 07:00 185 18.9
2016-Sep-29 06:55 185 18.9
2016-Sep-29 06:50 185 0 gusting 4 18.9
2016-Sep-29 06:45 185 1 gusting 4 18.3
2016-Sep-29 06:40 185 1 gusting 6 18.3
2016-Sep-29 06:35 181 1 gusting 6 18.3
2016-Sep-29 06:30 172 1 gusting 4 18.3
2016-Sep-29 06:25 171 1 gusting 5 18.9
2016-Sep-29 06:20 171 2 gusting 6 18.9
2016-Sep-29 06:15 175 2 gusting 6 18.9
2016-Sep-29 06:10 183 2 gusting 4 18.9
2016-Sep-29 06:05 187 2 gusting 4 18.9
2016-Sep-29 06:00 189 2 gusting 3 18.9
2016-Sep-29 05:55 191 1 gusting 3 18.9
2016-Sep-29 05:50 192 0 gusting 3 18.9
2016-Sep-29 05:45 193 0 gusting 2 18.9
2016-Sep-29 05:40 193 0 gusting 2 18.9
2016-Sep-29 05:35 193 0 gusting 3 18.9
2016-Sep-29 05:30 193 0 gusting 3 18.9
2016-Sep-29 05:25 193 0 gusting 3 18.9
2016-Sep-29 05:20 193 0 gusting 2 18.3
2016-Sep-29 05:15 193 0 gusting 3 18.3
2016-Sep-29 05:10 194 0 gusting 4 18.3
2016-Sep-29 05:05 196 0 gusting 4 18.3
2016-Sep-29 05:00 197 0 gusting 2 18.3
2016-Sep-29 04:55 203 0 gusting 3 18.3
2016-Sep-29 04:50 208 0 gusting 3 18.9
2016-Sep-29 04:45 210 0 gusting 1 18.9
2016-Sep-29 04:40 210 0 gusting 2 18.9
2016-Sep-29 04:35 211 0 gusting 4 18.9
2016-Sep-29 04:30 212 1 gusting 4 18.9
2016-Sep-29 04:25 212 1 gusting 3 18.9
2016-Sep-29 04:20 212 0 gusting 3 18.9
2016-Sep-29 04:15 212 0 gusting 3 19.4
2016-Sep-29 04:10 212 1 gusting 4 19.4
2016-Sep-29 04:05 204 1 gusting 4 19.4
2016-Sep-29 04:00 188 0 gusting 4 19.4
2016-Sep-29 03:55 172 19.4
2016-Sep-29 03:50 171 19.4
2016-Sep-29 03:45 172 0 gusting 2 19.4
2016-Sep-29 03:40 172 0 gusting 2 19.4
2016-Sep-29 03:35 172 0 gusting 2 19.4
2016-Sep-29 03:30 171 0 gusting 3 19.4
2016-Sep-29 03:25 171 0 gusting 3 18.9
2016-Sep-29 03:20 171 0 gusting 4 18.9
2016-Sep-29 03:15 172 1 gusting 6 18.9
2016-Sep-29 03:10 174 1 gusting 6 18.9
2016-Sep-29 03:05 178 0 gusting 3 18.9
2016-Sep-29 03:00 174 0 gusting 2 18.9
2016-Sep-29 02:55 174 0 gusting 2 18.9
2016-Sep-29 02:50 174 0 gusting 2 18.9
2016-Sep-29 02:45 174 0 gusting 2 18.9
2016-Sep-29 02:40 174 0 gusting 2 18.9
2016-Sep-29 02:35 174 0 gusting 4 18.9
2016-Sep-29 02:30 175 0 gusting 4 18.9
2016-Sep-29 02:25 175 0 gusting 4 18.9
2016-Sep-29 02:20 172 1 gusting 4 18.9
2016-Sep-29 02:15 172 1 gusting 4 18.9
2016-Sep-29 02:10 175 1 gusting 5 18.9
2016-Sep-29 02:05 176 1 gusting 5 18.9
2016-Sep-29 02:00 176 0 gusting 2 18.9
2016-Sep-29 01:55 172 0 gusting 2 18.9
2016-Sep-29 01:50 173 0 gusting 2 18.9
2016-Sep-29 01:45 172 0 gusting 2 18.9
2016-Sep-29 01:40 173 0 gusting 2 18.9
2016-Sep-29 01:35 173 0 gusting 2 18.9
2016-Sep-29 01:30 173 0 gusting 2 18.9
2016-Sep-29 01:25 173 0 gusting 2 18.9
2016-Sep-29 01:20 173 18.9
2016-Sep-29 01:15 173 18.9
2016-Sep-29 01:10 173 18.9
2016-Sep-29 01:05 173 0 gusting 4 18.9
2016-Sep-29 01:00 172 0 gusting 4 18.9
2016-Sep-29 00:55 174 0 gusting 5 18.9
2016-Sep-29 00:50 176 1 gusting 5 18.9
2016-Sep-29 00:45 176 1 gusting 5 18.9
2016-Sep-29 00:40 179 0 gusting 4 18.9
2016-Sep-29 00:35 189 1 gusting 4 18.9
2016-Sep-29 00:30 196 1 gusting 4 18.9
2016-Sep-29 00:25 191 1 gusting 4 18.9
2016-Sep-29 00:20 187 1 gusting 4 18.9
2016-Sep-29 00:15 183 1 gusting 4 19.4
2016-Sep-29 00:10 179 1 gusting 3 19.4
2016-Sep-29 00:05 182 0 gusting 3 19.4
2016-Sep-29 00:00 184 0 gusting 3 19.4
2016-Sep-28 23:55 184 0 gusting 3 19.4
2016-Sep-28 23:50 184 0 gusting 2 19.4
2016-Sep-28 23:45 184 0 gusting 2 19.4
2016-Sep-28 23:40 184 0 gusting 3 19.4
2016-Sep-28 23:35 184 1 gusting 3 19.4
2016-Sep-28 23:30 184 1 gusting 3 19.4
2016-Sep-28 23:25 185 0 gusting 3 19.4
2016-Sep-28 23:20 186 1 gusting 3 19.4
2016-Sep-28 23:15 188 1 gusting 3 19.4
2016-Sep-28 23:10 185 1 gusting 3 19.4
2016-Sep-28 23:05 182 2 gusting 6 19.4
2016-Sep-28 22:55 202 0 gusting 3 19.4
2016-Sep-28 22:50 205 20.0
2016-Sep-28 22:45 205 0 gusting 2 20.0
2016-Sep-28 22:40 205 0 gusting 2 20.0
2016-Sep-28 22:35 199 1 gusting 5 20.0
2016-Sep-28 22:30 184 2 gusting 5 20.0
2016-Sep-28 22:25 168 2 gusting 4 20.0
2016-Sep-28 22:20 167 2 gusting 5 20.0
2016-Sep-28 22:15 164 2 gusting 5 20.0
2016-Sep-28 22:10 158 2 gusting 5 20.0
2016-Sep-28 22:05 125 1 gusting 5 20.0
2016-Sep-28 22:00 081 0 gusting 3 20.6
2016-Sep-28 21:55 061 0 gusting 2 20.6
2016-Sep-28 21:50 059 1 gusting 3 20.6
2016-Sep-28 21:45 059 1 gusting 3 20.6
2016-Sep-28 21:40 059 0 gusting 3 20.6
2016-Sep-28 21:35 059 0 gusting 1 20.6
2016-Sep-28 21:30 059 0 gusting 1 20.6
2016-Sep-28 21:25 059 1 gusting 3 20.6
2016-Sep-28 21:20 057 1 gusting 3 20.6
2016-Sep-28 21:15 055 0 gusting 3 20.6
2016-Sep-28 21:10 054 1 gusting 3 20.6
2016-Sep-28 21:05 043 1 gusting 3 20.6
2016-Sep-28 21:00 023 1 gusting 3 20.6
2016-Sep-28 20:55 012 0 gusting 2 20.6
2016-Sep-28 20:50 010 1 gusting 4 20.6
2016-Sep-28 20:45 359 2 gusting 4 20.6
2016-Sep-28 20:40 351 2 gusting 4 20.6
2016-Sep-28 20:35 349 2 gusting 4 20.6
2016-Sep-28 20:30 355 2 gusting 4 20.6
2016-Sep-28 20:25 006 2 gusting 5 20.6
2016-Sep-28 20:20 013 2 gusting 5 20.6
2016-Sep-28 20:15 029 2 gusting 4 20.6
2016-Sep-28 20:10 032 2 gusting 4 20.6
2016-Sep-28 20:05 023 1 gusting 4 20.6
2016-Sep-28 20:00 016 2 gusting 6 20.6